Welcome to the New NWS' Forecast!
Most changes are behind the scenes, but click here for differences you might notice.

Terminal Aerodrome Forecast (TAF)

Issued by National Weather Service (NWS)

                            
105 
FTUS42 KKEY 161204 RRA
TAFEYW
TAF
KEYW 161204Z 1612/1712 12010KT P6SM VCSH SCT025=